DL9RAN-11 Weather Reports


time (UTC)temp
C
wind
direction
speed
KPH
gust
KPH
rain 1hr
cm
rain 24hr
cm
rain mn
cm
humidity
%
barometer
mb
20260507105714 15 0.0 0.0 0.00 0.00 0.00 65 1016.8
20260507105214 15 0.0 0.0 0.00 0.00 0.00 64 1016.8
20260507104713 15 0.0 0.0 0.00 0.00 0.00 64 1016.8
20260507103111 16 0.0 0.0 0.00 0.00 0.00 65 1016.7
20260507102610 16 0.0 0.0 0.00 0.00 0.00 65 1016.6
20260507100437 15 0.0 0.0 0.00 0.00 0.00 69 1016.4
20260507093732 13 0.0 0.0 0.00 0.00 0.00 71 1016.5
20260507092700 13 0.0 0.0 0.00 0.00 0.00 71 1016.4
20260507091629 13 0.0 0.0 0.00 0.00 0.00 71 1016.4
20260507084924 13 0.0 0.0 0.00 0.00 0.00 70 1016.2
20260507084423 13 0.0 0.0 0.00 0.00 0.00 70 1016.1
20260507082821 14 0.0 0.0 0.00 0.00 0.00 70 1016.1
20260507082321 14 0.0 0.0 0.00 0.00 0.00 70 1016.1
20260507080718 14 0.0 0.0 0.00 0.00 0.00 71 1016.0
20260507074544 13 0.0 0.0 0.00 0.00 0.00 74 1015.8
20260507074044 13 0.0 0.0 0.00 0.00 0.00 74 1015.7
20260507073543 12 0.0 0.0 0.00 0.00 0.00 75 1015.6
20260507072512 12 0.0 0.0 0.00 0.00 0.00 75 1015.6
20260507072012 12 0.0 0.0 0.00 0.00 0.00 75 1015.4
20260507070409 12 0.0 0.0 0.00 0.00 0.00 77 1015.4
20260507065338 12 0.0 0.0 0.00 0.00 0.00 77 1015.2
20260507064837 11 0.0 0.0 0.00 0.00 0.00 77 1015.2
20260507063806 11 0.0 0.0 0.00 0.00 0.00 77 1015.2
20260507061632 12 0.0 0.0 0.00 0.00 0.00 77 1015.2
20260507060029 11 0.0 0.0 0.00 0.00 0.00 78 1014.9
20260507054427 11 0.0 0.0 0.00 0.00 0.00 81 1014.7
20260507053355 10 0.0 0.0 0.00 0.00 0.00 81 1014.6
20260507052855 10 0.0 0.0 0.00 0.00 0.00 81 1014.6
20260507045048 10 0.0 0.0 0.00 0.00 0.00 80 1014.3
20260507044016 10 0.0 0.0 0.00 0.00 0.00 80 1014.2
20260507043516 10 0.0 0.0 0.00 0.00 0.00 80 1014.2
20260507041913 10 0.0 0.0 0.00 0.00 0.00 80 1014.1
20260507041413 10 0.0 0.0 0.00 0.00 0.00 80 1014.1
20260507040912 10 0.0 0.0 0.00 0.00 0.00 80 1014.0
20260507035841 10 0.0 0.0 0.00 0.00 0.00 80 1013.9
20260507034810 10 0.0 0.0 0.00 0.00 0.00 80 1013.8
20260507033738 10 0.0 0.0 0.00 0.00 0.00 80 1013.8
20260507031033 10 0.0 0.0 0.00 0.00 0.00 79 1013.7
20260507030533 10 0.0 0.0 0.00 0.00 0.00 79 1013.7
20260507025502 10 0.0 0.0 0.00 0.00 0.00 79 1013.7
20260507023859 10 0.0 0.0 0.00 0.00 0.00 79 1013.5
20260507023359 10 0.0 0.0 0.00 0.00 0.00 79 1013.5
20260507022858 10 0.0 0.0 0.00 0.00 0.00 79 1013.5
20260507022358 10 0.0 0.0 0.00 0.00 0.00 79 1013.5
20260507021858 10 0.0 0.0 0.00 0.00 0.00 79 1013.5
20260507021357 10 0.0 0.0 0.00 0.00 0.00 79 1013.1
20260507015755 11 0.0 0.0 0.00 0.00 0.00 79 1013.1
20260507014723 11 0.0 0.0 0.00 0.00 0.00 79 1013.1
20260507010345 11 0.0 0.0 0.00 0.00 0.00 79 1013.0
20260507005313 11 0.0 0.0 0.00 0.00 0.00 79 1013.0
20260507004813 11 0.0 0.0 0.00 0.00 0.00 79 1013.0
20260507003742 11 0.0 0.0 0.00 0.00 0.00 79 1013.0
20260507003241 11 0.0 0.0 0.00 0.00 0.00 78 1013.0
20260507001639 11 0.0 0.0 0.00 0.00 0.00 78 1013.0
20260506234402 12 0.0 0.0 0.00 0.00 0.00 79 1013.0
20260506232800 12 0.0 0.0 0.00 0.00 0.00 79 1013.0
20260506232300 12 0.0 0.0 0.00 0.00 0.00 79 1013.0
20260506231759 12 0.0 0.0 0.00 0.00 0.00 79 1013.0
20260506225054 12 0.0 0.0 0.00 0.00 0.00 80 1012.8
20260506224023 12 0.0 0.0 0.00 0.00 0.00 80 1012.7
20260506223523 12 0.0 0.0 0.00 0.00 0.00 80 1012.6
20260506220818 12 0.0 0.0 0.00 0.00 0.00 80 1012.4
20260506220317 12 0.0 0.0 0.00 0.00 0.00 80 1012.4
20260506215817 12 0.0 0.0 0.00 0.00 0.00 80 1012.4
20260506214746 12 0.0 0.0 0.00 0.00 0.00 81 1012.2
20260506214246 12 0.0 0.0 0.00 0.00 0.00 80 1012.2
20260506211541 12 0.0 0.0 0.00 0.00 0.00 80 1011.9
20260506204305 13 0.0 0.0 0.00 0.00 0.00 79 1011.9
20260506203804 13 0.0 0.0 0.00 0.00 0.00 79 1011.9
20260506203304 13 0.0 0.0 0.00 0.00 0.00 79 1011.9
20260506200559 13 0.0 0.0 0.00 0.00 0.00 78 1011.6
20260506195528 13 0.0 0.0 0.00 0.00 0.00 79 1011.3
20260506192823 14 0.0 0.0 0.00 0.00 0.00 77 1010.8
20260506190649 14 0.0 0.0 0.00 0.00 0.00 77 1010.1
20260506190149 14 0.0 0.0 0.00 0.00 0.00 77 1010.1
20260506185117 14 0.0 0.0 0.00 0.00 0.00 77 1010.1
20260506184617 14 0.0 0.0 0.00 0.00 0.00 77 1010.1
20260506183545 14 0.0 0.0 0.00 0.00 0.00 77 1009.8
20260506183045 14 0.0 0.0 0.00 0.00 0.00 76 1009.8
20260506182545 14 0.0 0.0 0.00 0.00 0.00 75 1008.8
20260506182044 14 0.0 0.0 0.00 0.00 0.00 75 1008.8
20260506181013 14 0.0 0.0 0.00 0.00 0.00 75 1008.8
20260506175942 14 0.0 0.0 0.00 0.00 0.00 75 1008.8
20260506175441 14 0.0 0.0 0.00 0.00 0.00 75 1009.3
20260506173839 15 0.0 0.0 0.00 0.00 0.00 70 1009.3
20260506171705 15 0.0 0.0 0.00 0.00 0.00 68 1009.7
20260506171205 16 0.0 0.0 0.00 0.00 0.00 67 1009.7
20260506170133 16 0.0 0.0 0.00 0.00 0.00 67 1010.1
20260506165102 17 0.0 0.0 0.00 0.00 0.00 67 1010.1
20260506164602 17 0.0 0.0 0.00 0.00 0.00 65 1009.7
20260506163530 18 0.0 0.0 0.00 0.00 0.00 61 1008.6
20260506163030 18 0.0 0.0 0.00 0.00 0.00 56 1008.6
20260506161427 19 0.0 0.0 0.00 0.00 0.00 55 1007.8
20260506160356 20 0.0 0.0 0.00 0.00 0.00 53 1007.8
20260506155324 20 0.0 0.0 0.00 0.00 0.00 51 1007.6
20260506154824 20 0.0 0.0 0.00 0.00 0.00 51 1007.4
20260506154324 20 0.0 0.0 0.00 0.00 0.00 51 1007.4
20260506153252 20 0.0 0.0 0.00 0.00 0.00 51 1007.5
20260506152752 21 0.0 0.0 0.00 0.00 0.00 51 1007.6
20260506151720 21 0.0 0.0 0.00 0.00 0.00 50 1007.6
20260506151220 21 0.0 0.0 0.00 0.00 0.00 50 1007.7
20260506144515 21 0.0 0.0 0.00 0.00 0.00 51 1008.1
20260506143444 21 0.0 0.0 0.00 0.00 0.00 51 1008.3
20260506142944 21 0.0 0.0 0.00 0.00 0.00 51 1008.3
20260506142443 21 0.0 0.0 0.00 0.00 0.00 51 1008.3
20260506141942 21 0.0 0.0 0.00 0.00 0.00 51 1008.3
20260506135238 20 0.0 0.0 0.00 0.00 0.00 52 1008.6
20260506133104 20 0.0 0.0 0.00 0.00 0.00 53 1008.6
20260506132604 20 0.0 0.0 0.00 0.00 0.00 53 1009.0
20260506131532 20 0.0 0.0 0.00 0.00 0.00 54 1009.0
20260506130501 20 0.0 0.0 0.00 0.00 0.00 53 1009.0
20260506130000 20 0.0 0.0 0.00 0.00 0.00 54 1009.0
20260506124929 20 0.0 0.0 0.00 0.00 0.00 53 1009.0
20260506120550 20 0.0 0.0 0.00 0.00 0.00 54 1009.7
20260506113845 20 0.0 0.0 0.00 0.00 0.00 53 1010.0
20260506113344 20 0.0 0.0 0.00 0.00 0.00 54 1010.1
20260506112313 20 0.0 0.0 0.00 0.00 0.00 53 1010.4
20260506111813 20 0.0 0.0 0.00 0.00 0.00 54 1010.4